STARLINK-1123, 44930

Orbit data source: Space-Track

STARLINK-1123, 44930 is a payload satellite owned by SpaceX/Seattle (US) in LEO that was launched on Tue, 07 Jan 2020 UTC via an FALCON 9 launch vehicle from the Air Force Eastern Test Range (AFETR). Payload-class satellites include a variety of spacecraft equipped with specific instruments for various scientific and technological missions. These include communications satellites like Starlink; space stations such as the ISS; scientific satellites like the Hubble; Earth observation satellites from companies like Planet Labs, Umbra, and HawkEye 360; GPS; miniature CubeSats for education and research; and military/defense satellites.

Loading next visibility...
Identifier
44930, 2020-001S
Orbit
LEO
Country
Flag of USUS
Related business
Manufacturer
SpaceX/Seattle
Mission
Operational Commercial Communications
Bus & Motor
STARLINK, Unknown motor
Mass
260 kg wet, ~248 kg dry
Launch date (UTC)
2020-01-07 (6 years ago)
Launch vehicle
FALCON 9
Launch site
Air Force Eastern Test Range (AFETR)
Object type
Payload
Rocket body
Debris
Shape & HBR
Box + 1 Pan, 10.1 m
Radar Cross Section
13.562 m², Large (>1 m²)

Expand to show TLE details & history
Last TLE update: 2 days ago

TLE from 2 days ago
0 STARLINK-1123
1 44930U 20001S   25312.30854302  .00000092  00000-0  25065-4 0  9994
2 44930  53.0515 171.5196 0001551  92.0780 268.0387 15.06394666321555
Epoch: 2025-11-08T07:24Z
TLE epoch observation values (Epoch: 2025-11-08T07:24:18.116Z)
Latitude
-0.00001°
Longitude
12.70409°
Altitude
548.144 km
Speed
7.589 km/s
True Right ascension
11h 26m 04s
True Declination
0° 00' 00"
Sunlit
Object was in daylight at epoch
Visualization orbit readout
Latitude
Unknown
Longitude
Unknown
Altitude
Unknown
Speed
Unknown
Apparent Right ascension
Unknown
Apparent Declination
Unknown
Sunlit
N/A
Visualization observer readout
Local Sidereal Time
03:27:25
Azimuth
Unknown
Elevation
Unknown
Doppler factor
Unknown
Orbital elements
Apogee altitude
548.573 km
Perigee altitude
546.425 km
Semi-major axis
6,925.636 km
Eccentricity
0.00016
Inclination
53.0515°
RAAN
171.5196°
Arg. of periapsis
92.078°
True anomaly
268.02094°
Mean anomaly
268.0387°
Eccentric anomaly
268.02982°
Mean motion
3.76577 °/min
Orbital period
95.6 mins
BSTAR
0.000025065
Loading maneuver chart data...
Computing Atmospheric mass density...

Documentation

Showing up to 5 results
|